�������l�o���
Date,Time,MP-1(��Sv/h),MP-2(��Sv/h),MP-3(��Sv/h),MP-4(��Sv/h),MP-5(��Sv/h),MP-6(��Sv/h),MP-7(��Sv/h),MP-8(��Sv/h),����,����(m/s),���J
2016/10/23,00:00,1.168,1.973,1.362,2.192,1.545,0.612,1.082,0.996,�k,7.4,��
2016/10/23,00:10,1.172,1.973,1.363,2.191,1.542,0.611,1.082,0.996,�k,8.0,��
2016/10/23,00:20,1.173,1.971,1.360,2.191,1.547,0.611,1.081,0.996,�k,8.5,��
2016/10/23,00:30,1.172,1.971,1.361,2.189,1.545,0.612,1.083,0.996,�k,7.8,��
2016/10/23,00:40,1.173,1.974,1.361,2.189,1.546,0.613,1.081,0.996,�k�k��,8.8,��
2016/10/23,00:50,1.173,1.973,1.363,2.191,1.545,0.612,1.081,0.997,�k,8.2,��
2016/10/23,01:00,1.170,1.972,1.362,2.188,1.543,0.613,1.084,0.997,�k,8.3,��
2016/10/23,01:10,1.170,1.973,1.363,2.189,1.546,0.612,1.082,0.995,�k,7.7,��
2016/10/23,01:20,1.172,1.974,1.363,2.193,1.543,0.613,1.082,0.998,�k,6.1,��
2016/10/23,01:30,1.172,1.973,1.360,2.190,1.542,0.614,1.083,0.996,�k,7.1,��
2016/10/23,01:40,1.172,1.973,1.365,2.190,1.545,0.613,1.083,0.998,�k�k��,6.4,��
2016/10/23,01:50,1.171,1.973,1.363,2.190,1.544,0.613,1.084,0.997,�k�k��,6.0,��
2016/10/23,02:00,1.173,1.973,1.362,2.192,1.545,0.614,1.085,0.996,�k�k��,8.3,��
2016/10/23,02:10,1.172,1.973,1.363,2.192,1.546,0.613,1.082,0.996,�k�k��,7.8,��
2016/10/23,02:20,1.174,1.973,1.364,2.195,1.545,0.613,1.083,0.996,�k�k��,7.4,��
2016/10/23,02:30,1.172,1.976,1.361,2.192,1.547,0.611,1.079,0.998,�k�k��,7.7,��
2016/10/23,02:40,1.172,1.974,1.363,2.194,1.543,0.612,1.084,0.997,�k�k��,7.4,��
2016/10/23,02:50,1.171,1.974,1.365,2.190,1.543,0.612,1.083,0.999,�k�k��,7.8,��
2016/10/23,03:00,1.171,1.971,1.362,2.194,1.548,0.612,1.084,0.997,�k�k��,7.7,��
2016/10/23,03:10,1.174,1.973,1.363,2.189,1.544,0.613,1.083,0.996,�k�k��,8.3,��
2016/10/23,03:20,1.172,1.975,1.363,2.190,1.544,0.612,1.084,0.995,�k,7.1,��
2016/10/23,03:30,1.170,1.973,1.361,2.192,1.543,0.613,1.085,0.997,�k�k��,6.7,��
2016/10/23,03:40,1.172,1.972,1.362,2.193,1.544,0.612,1.081,0.996,�k,7.7,��
2016/10/23,03:50,1.171,1.971,1.362,2.191,1.544,0.610,1.083,0.996,�k,7.7,��
2016/10/23,04:00,1.170,1.971,1.361,2.191,1.543,0.612,1.082,0.994,�k,8.0,��
2016/10/23,04:10,1.170,1.972,1.362,2.193,1.540,0.610,1.083,0.997,�k,8.9,��
2016/10/23,04:20,1.170,1.973,1.361,2.192,1.542,0.611,1.082,0.995,�k,9.4,��
2016/10/23,04:30,1.171,1.968,1.360,2.190,1.543,0.610,1.081,0.996,�k,9.7,��
2016/10/23,04:40,1.169,1.975,1.361,2.191,1.542,0.610,1.083,0.995,�k,8.9,��
2016/10/23,04:50,1.170,1.971,1.362,2.189,1.542,0.610,1.082,0.996,�k�k��,7.8,��
2016/10/23,05:00,1.171,1.973,1.361,2.190,1.541,0.611,1.080,0.997,�k�k��,6.3,��
2016/10/23,05:10,1.168,1.971,1.362,2.190,1.542,0.610,1.081,0.994,�k�k��,6.6,��
2016/10/23,05:20,1.172,1.971,1.360,2.190,1.544,0.611,1.081,0.995,�k�k��,5.3,��
2016/10/23,05:30,1.170,1.968,1.361,2.188,1.541,0.610,1.082,0.996,�k�k��,5.8,��
2016/10/23,05:40,1.172,1.973,1.359,2.191,1.542,0.610,1.083,0.995,�k�k��,7.4,��
2016/10/23,05:50,1.168,1.972,1.359,2.190,1.541,0.611,1.082,0.997,�k�k��,8.6,��
2016/10/23,06:00,1.167,1.972,1.361,2.190,1.540,0.610,1.083,0.994,�k��,6.7,��
2016/10/23,06:10,1.171,1.972,1.361,2.188,1.540,0.610,1.084,0.996,�k��,6.4,��
2016/10/23,06:20,1.170,1.970,1.361,2.193,1.540,0.611,1.083,0.996,�k��,6.9,��
2016/10/23,06:30,1.169,1.974,1.361,2.193,1.539,0.609,1.082,0.993,�k��,5.2,��
2016/10/23,06:40,1.168,1.972,1.361,2.191,1.540,0.609,1.083,0.997,�k��,4.9,��
2016/10/23,06:50,1.172,1.972,1.361,2.191,1.539,0.609,1.086,0.994,�k�k��,7.4,��
2016/10/23,07:00,1.169,1.971,1.361,2.190,1.540,0.611,1.084,0.995,�k�k��,5.3,��
2016/10/23,07:10,1.170,1.976,1.360,2.190,1.542,0.611,1.083,0.996,�k�k��,5.2,��
2016/10/23,07:20,1.168,1.970,1.362,2.190,1.541,0.610,1.083,0.996,�k�k��,5.2,��
2016/10/23,07:30,1.171,1.972,1.361,2.191,1.540,0.611,1.084,0.995,�k,5.8,��
2016/10/23,07:40,1.169,1.974,1.361,2.192,1.541,0.612,1.084,0.995,�k,6.0,��
2016/10/23,07:50,1.172,1.972,1.363,2.196,1.541,0.610,1.084,0.997,�k�k��,6.9,��
2016/10/23,08:00,1.169,1.970,1.364,2.191,1.543,0.611,1.083,0.996,�k,6.7,��
2016/10/23,08:10,1.172,1.975,1.364,2.191,1.542,0.612,1.082,0.999,�k,6.0,��
2016/10/23,08:20,1.172,1.976,1.365,2.196,1.544,0.612,1.082,0.999,�k,6.1,��
2016/10/23,08:30,1.173,1.975,1.363,2.194,1.543,0.610,1.080,0.998,�k,5.2,��
2016/10/23,08:40,1.173,1.978,1.366,2.191,1.548,0.612,1.083,0.997,�k,4.6,��
2016/10/23,08:50,1.170,1.976,1.365,2.193,1.547,0.611,1.081,0.998,�k�k��,5.0,��
2016/10/23,09:00,1.172,1.979,1.366,2.195,1.548,0.613,1.080,0.998,�k�k��,4.7,��
2016/10/23,09:10,1.176,1.978,1.364,2.195,1.547,0.613,1.081,0.999,�k�k��,5.2,��
2016/10/23,09:20,1.176,1.979,1.366,2.196,1.548,0.613,1.082,0.998,�k,7.2,��
2016/10/23,09:30,1.172,1.976,1.367,2.195,1.546,0.612,1.083,0.998,�k,7.4,��
2016/10/23,09:40,1.172,1.975,1.367,2.197,1.543,0.612,1.083,0.997,�k,7.1,��
2016/10/23,09:50,1.175,1.974,1.367,2.197,1.544,0.611,1.083,0.997,�k,6.4,��
2016/10/23,10:00,1.174,1.975,1.364,2.196,1.546,0.609,1.084,0.996,�k�k��,7.7,��
2016/10/23,10:10,1.175,1.974,1.364,2.195,1.545,0.611,1.084,0.996,�k�k��,8.5,��
2016/10/23,10:20,1.174,1.977,1.363,2.199,1.544,0.611,1.083,0.996,�k�k��,8.9,��
2016/10/23,10:30,1.173,1.975,1.366,2.194,1.543,0.610,1.082,0.994,�k�k��,9.4,��
2016/10/23,10:40,1.173,1.980,1.365,2.196,1.545,0.609,1.084,0.994,�k�k��,9.6,��
2016/10/23,10:50,1.174,1.979,1.366,2.196,1.546,0.610,1.084,0.994,�k�k��,8.2,��
2016/10/23,11:00,1.174,1.977,1.362,2.197,1.547,0.609,1.083,0.994,�k�k��,8.6,��
2016/10/23,11:10,1.175,1.977,1.364,2.201,1.549,0.610,1.084,0.994,�k,8.8,��
2016/10/23,11:20,1.172,1.976,1.364,2.197,1.549,0.610,1.082,0.995,�k�k��,9.1,��
2016/10/23,11:30,1.175,1.976,1.365,2.199,1.548,0.610,1.083,0.994,�k�k��,8.0,��
2016/10/23,11:40,1.176,1.979,1.366,2.199,1.551,0.610,1.082,0.995,�k�k��,9.3,��
2016/10/23,11:50,1.174,1.975,1.366,2.199,1.548,0.610,1.083,0.995,�k�k��,8.6,��
2016/10/23,12:00,1.174,1.978,1.367,2.198,1.548,0.609,1.085,0.994,�k�k��,7.8,��
2016/10/23,12:10,1.173,1.977,1.363,2.199,1.547,0.611,1.084,0.994,�k�k��,8.6,��
2016/10/23,12:20,1.174,1.979,1.366,2.199,1.549,0.611,1.083,0.994,�k,8.6,��
2016/10/23,12:30,1.173,1.976,1.364,2.201,1.550,0.611,1.082,0.994,�k�k��,7.4,��
2016/10/23,12:40,1.175,1.976,1.366,2.199,1.549,0.609,1.082,0.995,�k,7.5,��
2016/10/23,12:50,1.172,1.979,1.365,2.202,1.548,0.609,1.083,0.994,�k,6.4,��
2016/10/23,13:00,1.172,1.980,1.364,2.201,1.548,0.610,1.084,0.996,�k�k��,6.9,��
2016/10/23,13:10,1.173,1.977,1.368,2.198,1.548,0.610,1.085,0.995,�k�k��,6.0,��
2016/10/23,13:20,1.173,1.978,1.364,2.202,1.548,0.610,1.082,0.995,�k�k��,6.0,��
2016/10/23,13:30,1.176,1.980,1.366,2.200,1.545,0.611,1.084,0.996,�k�k��,5.6,��
2016/10/23,13:40,1.174,1.978,1.368,2.197,1.549,0.612,1.083,0.994,�k�k��,5.3,��
2016/10/23,13:50,1.175,1.979,1.368,2.201,1.549,0.612,1.084,0.995,�k�k��,6.3,��
2016/10/23,14:00,1.173,1.980,1.367,2.199,1.544,0.613,1.083,0.995,�k�k��,6.3,��
2016/10/23,14:10,1.178,1.980,1.369,2.199,1.550,0.612,1.083,0.996,�k�k��,5.8,��
2016/10/23,14:20,1.178,1.979,1.368,2.194,1.550,0.612,1.085,0.995,�k,6.3,��
2016/10/23,14:30,1.178,1.981,1.366,2.200,1.549,0.612,1.084,0.997,�k,6.9,��
2016/10/23,14:40,1.179,1.978,1.367,2.198,1.551,0.612,1.084,0.995,�k�k��,5.8,��
2016/10/23,14:50,1.176,1.983,1.368,2.200,1.552,0.612,1.084,0.995,�k�k��,4.9,��
2016/10/23,15:00,1.178,1.978,1.366,2.196,1.550,0.611,1.085,0.997,�k�k��,3.9,��
2016/10/23,15:10,1.179,1.982,1.365,2.199,1.551,0.612,1.084,0.995,�k�k��,3.9,��
2016/10/23,15:20,1.176,1.981,1.367,2.199,1.550,0.614,1.085,0.997,�k�k��,4.4,��
2016/10/23,15:30,1.178,1.983,1.367,2.202,1.546,0.613,1.083,0.997,�k�k��,5.5,��
2016/10/23,15:40,1.177,1.982,1.370,2.200,1.549,0.612,1.084,0.997,�k��,5.2,��
2016/10/23,15:50,1.176,1.982,1.370,2.202,1.551,0.613,1.081,0.997,�k,3.5,��
2016/10/23,16:00,1.178,1.982,1.367,2.200,1.549,0.614,1.083,0.997,�k��,2.9,��
2016/10/23,16:10,1.175,1.982,1.370,2.201,1.552,0.612,1.084,0.995,�k��,4.1,��
2016/10/23,16:20,1.176,1.981,1.370,2.197,1.549,0.612,1.081,0.996,�k��,4.2,��
2016/10/23,16:30,1.177,1.981,1.367,2.199,1.551,0.613,1.084,0.996,���k��,2.4,��
2016/10/23,16:40,1.176,1.982,1.364,2.201,1.551,0.612,1.083,0.998,���k��,3.8,��
2016/10/23,16:50,1.177,1.982,1.366,2.199,1.551,0.614,1.082,1.000,�k��,3.2,��
2016/10/23,17:00,1.177,1.981,1.369,2.200,1.553,0.613,1.082,0.997,�k��,4.1,��
2016/10/23,17:10,1.174,1.981,1.369,2.199,1.549,0.613,1.082,0.996,�k��,4.9,��
2016/10/23,17:20,1.175,1.978,1.369,2.203,1.553,0.612,1.084,0.998,�k��,5.3,��
2016/10/23,17:30,1.174,1.980,1.367,2.197,1.550,0.613,1.084,0.997,�k��,3.6,��
2016/10/23,17:40,1.175,1.980,1.366,2.198,1.548,0.610,1.083,0.998,�k��,3.8,��
2016/10/23,17:50,1.174,1.981,1.366,2.199,1.552,0.611,1.083,0.997,���k��,4.1,��
2016/10/23,18:00,1.173,1.978,1.367,2.202,1.551,0.611,1.082,0.997,���k��,4.5,��
2016/10/23,18:10,1.174,1.981,1.367,2.199,1.551,0.609,1.081,0.997,���k��,5.0,��
2016/10/23,18:20,1.173,1.977,1.366,2.198,1.550,0.610,1.082,0.997,�k��,4.5,��
2016/10/23,18:30,1.174,1.974,1.367,2.200,1.551,0.611,1.082,0.996,���k��,3.4,��
2016/10/23,18:40,1.176,1.978,1.365,2.198,1.549,0.609,1.082,0.996,�k��,4.7,��
2016/10/23,18:50,1.172,1.978,1.367,2.196,1.548,0.611,1.083,0.998,�k��,5.5,��
2016/10/23,19:00,1.172,1.979,1.367,2.197,1.552,0.611,1.083,0.995,�k��,7.2,��
2016/10/23,19:10,1.172,1.977,1.366,2.198,1.549,0.611,1.086,0.996,�k��,8.0,��
2016/10/23,19:20,1.173,1.980,1.364,2.199,1.550,0.611,1.082,0.995,�k��,8.0,��
2016/10/23,19:30,1.173,1.978,1.367,2.199,1.545,0.610,1.083,0.994,�k��,7.4,��
2016/10/23,19:40,1.173,1.981,1.364,2.196,1.549,0.609,1.083,0.995,�k��,5.8,��
2016/10/23,19:50,1.172,1.976,1.365,2.201,1.548,0.610,1.083,0.995,�k��,9.1,��
2016/10/23,20:00,1.172,1.977,1.364,2.198,1.549,0.612,1.081,0.995,�k�k��,8.0,��
2016/10/23,20:10,1.171,1.978,1.364,2.200,1.546,0.611,1.084,0.995,�k��,8.0,��
2016/10/23,20:20,1.173,1.978,1.365,2.196,1.551,0.610,1.083,0.995,�k��,8.0,��
2016/10/23,20:30,1.171,1.976,1.363,2.196,1.546,0.611,1.082,0.998,�k��,7.4,��
2016/10/23,20:40,1.169,1.980,1.364,2.199,1.548,0.610,1.084,0.994,�k��,6.6,��
2016/10/23,20:50,1.171,1.979,1.366,2.196,1.548,0.609,1.085,0.996,�k��,5.3,��
2016/10/23,21:00,1.170,1.978,1.363,2.197,1.546,0.610,1.081,0.995,�k�k��,5.8,��
2016/10/23,21:10,1.170,1.978,1.364,2.195,1.546,0.611,1.084,0.995,�k�k��,5.8,��
2016/10/23,21:20,1.170,1.978,1.362,2.200,1.542,0.610,1.081,0.994,�k��,6.6,��
2016/10/23,21:30,1.169,1.976,1.365,2.199,1.548,0.609,1.081,0.995,�k�k��,6.6,��
2016/10/23,21:40,1.169,1.977,1.365,2.197,1.548,0.610,1.081,0.995,�k��,6.9,��
2016/10/23,21:50,1.172,1.976,1.365,2.198,1.547,0.609,1.081,0.995,�k��,6.7,��
2016/10/23,22:00,1.169,1.975,1.364,2.197,1.547,0.610,1.080,0.995,�k��,8.3,��
2016/10/23,22:10,1.170,1.973,1.364,2.197,1.545,0.611,1.081,0.995,�k��,7.4,��
2016/10/23,22:20,1.170,1.976,1.363,2.199,1.546,0.610,1.082,0.995,�k��,6.9,��
2016/10/23,22:30,1.169,1.977,1.364,2.198,1.548,0.609,1.080,0.996,�k��,6.4,��
2016/10/23,22:40,1.170,1.978,1.363,2.196,1.547,0.611,1.080,0.993,�k��,7.2,��
2016/10/23,22:50,1.169,1.978,1.365,2.196,1.546,0.609,1.080,0.993,�k�k��,7.7,��
2016/10/23,23:00,1.169,1.976,1.364,2.194,1.547,0.611,1.081,0.997,�k�k��,9.1,��
2016/10/23,23:10,1.168,1.978,1.366,2.201,1.547,0.610,1.082,0.996,�k�k��,10.2,��
2016/10/23,23:20,1.169,1.978,1.364,2.197,1.548,0.610,1.080,0.992,�k�k��,11.6,��
2016/10/23,23:30,1.169,1.978,1.364,2.198,1.545,0.611,1.081,0.994,�k�k��,9.9,��
2016/10/23,23:40,1.170,1.980,1.364,2.196,1.544,0.609,1.082,0.994,�k��,8.6,��
2016/10/23,23:50,1.171,1.979,1.363,2.200,1.545,0.609,1.082,0.996,�k��,6.3,��
